www.pogodaiklimat.ru
ПОГОДА в Форт Льюис
Время
и дата
08:55 06.02
09:00 06.02
09:02 06.02
09:29 06.02
09:34 06.02
09:46 06.02
09:55 06.02
09:59 06.02
10:15 06.02
10:26 06.02
10:29 06.02
10:34 06.02
10:44 06.02
10:47 06.02
10:52 06.02
10:55 06.02
11:30 06.02
11:35 06.02
11:40 06.02
11:45 06.02
11:55 06.02
11:58 06.02
12:13 06.02
12:53 06.02
12:55 06.02
13:05 06.02
13:06 06.02
13:11 06.02
13:26 06.02
13:31 06.02
13:35 06.02
13:51 06.02
13:55 06.02
14:00 06.02
14:10 06.02
14:55 06.02
15:06 06.02
15:55 06.02
16:19 06.02
16:55 06.02
17:31 06.02
17:44 06.02
17:55 06.02
18:41 06.02
18:43 06.02
18:55 06.02
19:55 06.02
20:55 06.02
Ветер
(напр.,м/с)
Видим. Явления Облачность Т
(С)
Тd
(С)
f
(%)
Тe
(С)
Тes
(С)
Комфортность P
(гПа)
Po
(гПа)
Тmin
(С)
Tmax
(С)
R
(мм)
R24
(мм)
S
(см)
Ю 5 16 км 8/8 720 м +5.8 +4.3 90 +1 +1 1029.7 1017.8
Ю 5 16 км 8/8 +6.0 +4.0 87 +2 +2 1029.7 1017.8
Ю 4 16 км слабый дождь 8/8 660 m
[Ns]
+6.0 +4.0 87 +2 +2 1029.7 1017.8
ЮВ 5 16 км 8/8 720 м +6.0 +5.0 93 +2 +2 1030.0 1018.2
Ю 5 16 км 8/8 690 м +6.0 +5.0 93 +2 +2 1030.0 1018.2
Ю 5 5 км слабый дождь, дымка 8/8 450 m
[Ns]
+6.0 +5.0 93 +2 +2 1030.0 1018.2
Ю 5 14 км слабый дождь 8/8 390 m
[Ns]
+6.5 +5.1 91 +2 +2 1030.0 1018.2 +5.0 +6.5 0.5
Ю 4 16 км 8/8 390 м +7.0 +5.0 87 +3 +4 1030.0 1018.2
ЮВ 5 16 км слабый дождь 8/8 450 m
[Ns]
+7.0 +6.0 93 +3 +3 1030.0 1018.2
ЮВ 5 16 км 8/8 390 м +7.0 +6.0 93 +3 +3 1030.0 1018.2
Ю 5 16 км слабый дождь 5/5 510 m
[Ns]
+7.0 +6.0 93 +3 +4 1030.0 1018.2
ЮВ 5 16 км слабый дождь 8/8
[Ns]
+7.0 +6.0 93 +3 +3 1030.0 1018.2
ЮВ 6 16 км слабый дождь 5/5 570 m
[Ns]
+7.0 +6.0 93 +2 +3 1030.0 1018.2
ЮВ 6 16 км 2/2 660 м +7.0 +6.0 93 +2 +3 1030.0 1018.2
Ю 6 16 км слабый дождь 5/5 720 m
[Ac Ns]
+8.0 +6.0 87 +4 +4 1030.0 1018.2
Ю 6 16 км слабый дождь 5/5 780 m
[Ci Ns]
+7.5 +5.6 88 +3 +4 1030.0 1018.2
Ю 5 16 км слабый дождь 10/10 480 m
[Ns]
+8.0 +6.0 87 +4 +4 1030.0 1018.2
Ю 5 16 км слабый дождь 10/10
[Ns]
+8.0 +6.0 87 +4 +4 1030.0 1018.2
Ю 6 16 км слабый дождь 8/8 480 m
[Ns]
+8.0 +6.0 87 +4 +4 1030.0 1018.2
Ю 7 16 км 8/8 480 м +8.0 +6.0 87 +3 +4 1030.0 1018.2
Ю 7 16 км 5/2 750 m
[Ac Ci]
+8.7 +5.8 82 +5 +5 1029.7 1017.8
Ю 7 16 км слабый дождь 5/2 960 m
[Ac Ci Ns]
+9.0 +6.0 81 +5 +6 1029.7 1017.8
Ю 6 16 км слабый дождь 8/8 720 m
[Ns]
+8.0 +6.0 87 +4 +4 1029.7 1017.8
Ю 5 16 км слабый дождь 8/8 720 m
[Ns]
+8.0 +6.0 87 +4 +5 1029.7 1017.8
Ю 5 16 км слабый дождь 8/8 720 m
[Ns]
+8.1 +5.6 84 +4 +5 1029.7 1017.8 0.8
Ю 4 16 км слабый дождь 8/8 660 m
[Ns]
+8.0 +6.0 87 +5 +5 1029.7 1017.8
Ю 5 16 км 8/8 660 м +8.0 +6.0 87 +4 +5 1029.7 1017.8
Ю 6 16 км 8/8 660 м +8.0 +5.0 81 +4 +4 1029.7 1017.8
Ю 5 16 км слабый дождь 8/8 600 m
[Ns]
+9.0 +5.0 76 +6 +6 1029.3 1017.5
Ю 4
{9}
16 км слабый дождь 8/8
[Ns]
+9.0 +5.0 76 +6 +7 1029.3 1017.5
Ю 4
{9}
16 км 8/8 +9.0 +6.0 81 +6 +7 1029.3 1017.5
Ю 6 16 км слабый дождь 8/8 600 m
[Ns]
+9.0 +5.0 76 +5 +6 1029.3 1017.5
Ю 6 16 км слабый дождь 10/10
[Ns]
+8.5 +4.9 78 +5 +5 1029.3 1017.5
Ю 6
{8}
16 км 8/8 570 м +9.0 +5.0 76 +5 +6 1029.3 1017.5
ЮВ 6
{10}
16 км 8/8 540 м +9.0 +5.0 76 +5 +6 1029.3 1017.5
Ю 5 16 км 8/8 510 м +8.7 +5.3 79 +5 +6 1029.0 1017.2
Ю 7 16 км слабый дождь 8/8 510 m
[Ns]
+9.0 +5.0 76 +5 +5 1029.3 1017.5
Ю 6 16 км слабый дождь 8/8 570 m
[Ac Ns]
+8.3 +5.2 81 +4 +4 1029.0 1017.2 +6.6 +8.9 0.8
Ю 5 16 км 8/5 1050 m
[Ac]
+8.0 +5.0 81 +4 +4 1028.6 1016.8
Ю 6 16 км 5/5 1800 м +8.1 +4.7 79 +4 +4 1028.3 1016.5
Ю 7 16 км слабый дождь 5/5 1950 m
[Ns]
+8.0 +4.0 76 +4 +4 1028.6 1016.8
ЮВ 6 16 км 5/5 1170 м +8.0 +4.0 76 +4 +4 1028.3 1016.5
ЮВ 6 16 км 2/2 1080 м +7.2 +4.2 81 +3 +3 1028.0 1016.2
ЮВ 6 16 км слабый дождь 2/2 1800 m
[Ns]
+7.0 +4.0 81 +3 +3 1027.3 1015.5
ЮВ 7 16 км ясно +7.0 +4.0 81 +2 +2 1027.3 1015.5
ЮВ 6 16 км 2/2 1650 м +7.0 +3.8 80 +3 +3 1027.3 1015.5
Ю 6
{9}
16 км 8/8 1500 м +7.6 +3.8 77 +3 +3 1026.3 1014.5
ЮВ 4 16 км 10/10 690 м +7.9 +4.1 77 +5 +5 1026.3 1014.5
Местоположение метеостанции Gray Army Airfield: широта 47.1167 долгота -122.5500 высота над уровнем моря 92 м.
В архиве по умолчанию представлена погода в Форт Льюис за последние 1-2 суток. Обновление информации о фактической погоде в базе происходит ежечасно! Архивные данные за месяц целиком и за предыдущие месяцы Вы можете получить, выбрав интересующий диапазон дат из раскрывающегося списка и нажав кнопку "Ввод!".
Внимание! Архив погоды МЕТАР в базе сайта по станциям, не включенным в климатический монитор, хранится не более 60 дней. Нет смысла пытаться выбрать более раннюю дату.
*Определитесь, кто Вы:
Внимание! Время в таблицах - местное (без учета летнего времени). Для получения всемирного времени необходимо вычесть поправку, которая равна -8 ч.
Смотрите также архив погоды в соседних городах и на ближайших метеорологических станциях:
Партнеры нашего сайта:      
Пояснения к столбцам:
  • Ветер - указаны скорость ветра в м/с - средняя за 10 мин, порывы в срок и между сроками (в фигурных скобках) и направление, откуда дует ветер: С - северный,
  • СВ - северо-восточный, В - восточный, ЮВ - юго-восточный, Ю - южный, ЮЗ - юго-западный, З - западный, СЗ - северо-западный.
  • Видимость - горизонтальная дальность видимости в метрах или километрах. При видимости от 1 до 10 км при отсутствии осадков обычно наблюдается дымка, при ухудшении видимости до 1 км и менее - туман. В сухую погоду видимость может ухудшаться дымом, пылью или мглою.
  • Явления - указаны атмосферные явления, наблюдавшиеся в срок или в последний час перед сроком; фигурными скобками обозначены явления, наблюдавшиеся между сроками (за 1-3 часа до срока); квадратными скобками обозначены град или гололедные отложения с указанием их диаметра в мм.
  • Облачность - указаны через наклонную черту общая и нижняя облачность в баллах и высота нижней границы облаков в метрах; квадратными скобками обозначены формы облаков: Ci - перистые, Cs - перисто-слоистые, Cc - перисто-кучевые, Ac - высококучевые, As - высокослоистые, Sc - слоисто-кучевые, Ns - слоисто-дождевые, Cu - кучевые, Cb - кучево-дождевые. Подробнее классификацию облаков см. в Атласе облаков (PDF).
  • T - Температура воздуха - температура, измеренная на высоте 2 м над землей.
  • Td - Температура точки росы - температура, при понижении до которой содержащийся в воздухе водяной пар достигнет насыщения.
  • f - Относительная влажность воздуха - влажноcть воздуха, измеренная на высоте 2 м над землей.
  • Te - Эффективная температура - температура, которую ощущает одетый по сезону человек в тени. Характеристика душности погоды. При расчете учитывается влияние влажности воздуха и скорости ветра на теплоощущения человека.
  • Tes - Эффективная температура на солнце - температура, которую ощущает человек, с поправкой на солнечный нагрев. Характеристика знойности погоды. Зависит от высоты солнца над горизонтом, облачности и скорости ветра. Ночью, в пасмурную погоду, а также при ветре 12 м/с и более поправка равна нулю.
  • P - Атмосферное давление - приведенное к уровню моря атмосферное давление.
  • Po - Атмосферное давление - измеренное на уровне метеостанции атмосферное давление.
  • Tmin - Минимальная температура - минимум температуры воздуха на высоте 2 м над землей.
  • Tmax - Максимальная температура - максимум температуры воздуха на высоте 2 м над землей.
  • R - Количество осадков - Количество выпавших осадков за период времени, мм. При наведении курсора мыши на число - период времени, за который выпало указанное количество осадков.
  • R24 - Количество осадков - Количество выпавших осадков за 24 часа, мм.
  • S - Снежный покров - Высота снежного покрова, см. При наведении курсора мыши на число - состояние снежного покрова и степень покрытия местности в баллах.